This demonstration page uses our WeatherBlox Daily Observations layout. Learn more.

Left ArrowRight Arrow

39.08367, -84.50855

Hourly Observations for January 27, 2015

Temp ( °F °C ) Dew Point ( °F °C ) Humidity (%) Winds ( mph kmh ) Pressure ( in mb ) Visibility ( mi km ) Precip ( " mm )
12:08 am 00:08 Cloudy 22 -5.6 14 -10 71 71 NE 5 7 30 1016 10 16.0934 0 0
12:29 am 00:29 Cloudy 22 -5.6 14 -10 71 71 NE 5 7 30 1016 10 16.0934 0 0
12:53 am 00:53 Cloudy 22 -5.6 14 -10 71 71 NE 5 7 29.98 1015 10 16.0934 0 0
1:13 am 01:13 Cloudy 22 -5.6 15 -9.4 75 75 ENE 5 7 30 1016 10 16.0934 0 0
1:33 am 01:33 Cloudy 22 -5.6 15 -9.4 75 75 ENE 6 9 29.97 1015 10 16.0934 0 0
1:49 am 01:49 Cloudy 21 -6 16 -9 80 80 NE 5 7 29.97 1015 10 16.0934 0 0
1:53 am 01:53 Cloudy 22 -5.6 15 -9.4 75 75 ENE 6 9 29.96 1015 10 16.0934 0 0
2:15 am 02:15 Cloudy 21 -6.1 16 -8.9 81 81 NE 6 9 29.97 1015 10 16.0934 0 0
2:26 am 02:26 Cloudy 21 -6 16 -9 80 80 NNE 6 9 29.97 1015 10 16.0934 0 0
2:40 am 02:40 Cloudy 21 -6 16 -9 80 80 NE 6 9 30 1016 10 16.0934 0 0
2:53 am 02:53 Cloudy 21 -6.1 15 -9.4 78 78 NNE 6 9 29.98 1015 9 14.48406 0 0
3:04 am 03:04 Cloudy 21 -6 16 -9 80 80 NE 6 9 30 1016 9 14.48406 0 0
3:25 am 03:25 Cloudy with Light Snow 21 -6.1 15 -9.4 78 78 NE 6 9 30 1016 5 8.0467 0 0.0254
3:53 am 03:53 Cloudy 21 -6.1 15 -9.4 78 78 NE 5 7 29.97 1015 8 12.87472 0 0.0254
4:32 am 04:32 Cloudy with Light Snow 21 -6 16 -9 80 80 NNE 6 9 30 1016 7 11.26538 0 0
4:53 am 04:53 Cloudy 20 -6.7 15 -9.4 81 81 NE 5 7 29.98 1015 8 12.87472 0 0.0254
5:40 am 05:40 Cloudy 19 -7.2 14 -10 81 81 NNE 5 7 30 1016 10 16.0934 0 0
5:53 am 05:53 Cloudy 19 -7.2 14 -10 81 81 NNE 6 9 29.99 1016 10 16.0934 0 0
6:53 am 06:53 Cloudy 19 -7.2 13 -10.6 77 77 NNE 7 11 30.04 1017 10 16.0934 0 0
7:53 am 07:53 Sunny 17 -8.3 12 -11.1 80 80 NE 7 11 30.07 1018 10 16.0934 0 0
8:53 am 08:53 Sunny 20 -6.7 13 -10.6 74 74 NE 6 9 30.1 1019 10 16.0934 0 0
9:53 am 09:53 Sunny 20 -6.7 13 -10.6 74 74 NE 5 7 30.12 1020 10 16.0934 0 0
10:53 am 10:53 Sunny 22 -5.6 13 -10.6 68 68 NE 6 9 30.14 1021 10 16.0934 0 0
11:53 am 11:53 Sunny 25 -3.9 14 -10 63 63 VRB 3 6 30.14 1021 10 16.0934 0 0
12:53 pm 12:53 Mostly Sunny 29 -1.7 14 -10 54 54 N 8 13 30.13 1020 10 16.0934 0 0
1:53 pm 13:53 Sunny 29 -1.7 13 -10.6 51 51 N 10 17 30.12 1020 10 16.0934 0 0
2:53 pm 14:53 Sunny 30 -1.1 14 -10 51 51 NNE 7 11 30.14 1021 10 16.0934 0 0
3:53 pm 15:53 Sunny 30 -1.1 14 -10 51 51 N 10 17 30.16 1021 10 16.0934 0 0
4:53 pm 16:53 Sunny 28 -2.2 9 -12.8 44 44 N 12 19 30.18 1022 10 16.0934 0 0
5:53 pm 17:53 Clear 25 -3.9 12 -11.1 58 58 N 9 15 30.21 1023 10 16.0934 0 0
6:53 pm 18:53 Clear 23 -5 10 -12.2 57 57 N 10 17 30.24 1024 10 16.0934 0 0
7:53 pm 19:53 Clear 22 -5.6 13 -10.6 68 68 N 7 11 30.26 1025 10 16.0934 0 0
8:53 pm 20:53 Clear 21 -6.1 13 -10.6 71 71 N 9 15 30.29 1026 10 16.0934 0 0
9:53 pm 21:53 Clear 20 -6.7 12 -11.1 71 71 NNE 6 9 30.3 1026 10 16.0934 0 0
10:53 pm 22:53 Clear 19 -7.2 12 -11.1 74 74 Calm 30.3 1026 10 16.0934 0 0
11:53 pm 23:53 Clear 18 -7.8 13 -10.6 81 81 Calm 30.3 1026 9 14.48406 0 0

Powered by AerisWeather